SAS4086 ENGM-ENEV

Flight info

Callsign SAS4086
Flight time 1h 19m
Altitude 37000
Route RIBBE DCT GIGNI DCT SOMUB DCT TUXOT DCT VABOT DCT PENNO
Aircraft A320/M-SDE3FGHIRWY/LB1

Departure

Time 2026-05-01 09:24
Airport Oslo-Gardermoen International Airport (ENGM)

Arrival

Time 2026-05-01 10:43
Airport Harstad/Narvik Airport (ENEV)
Time Latitude Longitude Altitude Speed Heading
2026-05-01 08:50 60.19478 11.09346 678 ft 0 kts 17°
2026-05-01 09:14 60.19459 11.09333 678 ft 4 kts 20°
2026-05-01 09:14 60.19435 11.09311 681 ft 4 kts 39°
2026-05-01 09:15 60.19421 11.09279 678 ft 3 kts 61°
2026-05-01 09:15 60.19410 11.09240 678 ft 4 kts 63°
2026-05-01 09:15 60.19402 11.09191 679 ft 4 kts 94°
2026-05-01 09:15 60.19404 11.09167 683 ft 0 kts 106°
2026-05-01 09:17 60.19404 11.09168 682 ft 1 kts 106°
2026-05-01 09:17 60.19430 11.09220 683 ft 5 kts 335°
2026-05-01 09:18 60.19444 11.09171 683 ft 4 kts 287°
2026-05-01 09:18 60.19484 11.08890 681 ft 12 kts 286°
2026-05-01 09:19 60.19562 11.08559 678 ft 11 kts 351°
2026-05-01 09:19 60.19630 11.08588 678 ft 9 kts 15°
2026-05-01 09:19 60.19689 11.08621 679 ft 8 kts 16°
2026-05-01 09:20 60.19853 11.08717 679 ft 19 kts 17°
2026-05-01 09:20 60.20146 11.08885 681 ft 22 kts 16°
2026-05-01 09:21 60.20414 11.09041 682 ft 18 kts 16°
2026-05-01 09:21 60.20528 11.09106 682 ft 13 kts 16°
2026-05-01 09:21 60.20648 11.09046 680 ft 9 kts 288°
2026-05-01 09:22 60.20685 11.08788 679 ft 10 kts 286°
2026-05-01 09:22 60.20665 11.08623 679 ft 1 kts 196°
2026-05-01 09:23 60.19897 11.08181 675 ft 124 kts 196°
2026-05-01 09:24 60.17863 11.06951 1528 ft 163 kts 200°
2026-05-01 09:24 60.16777 11.06122 2096 ft 176 kts 214°
2026-05-01 09:24 60.15415 11.01386 2954 ft 224 kts 248°
2026-05-01 09:25 60.14256 10.95122 4366 ft 249 kts 265°
2026-05-01 09:25 60.14758 10.88217 6404 ft 252 kts 279°
2026-05-01 09:26 60.15174 10.84784 7333 ft 257 kts 290°
2026-05-01 09:26 60.17792 10.79745 9106 ft 283 kts 336°
2026-05-01 09:26 60.19776 10.79111 9988 ft 295 kts 354°
2026-05-01 09:27 60.23968 10.81095 11059 ft 340 kts 26°
2026-05-01 09:27 60.25881 10.84120 11571 ft 359 kts 43°
2026-05-01 09:27 60.27643 10.87770 12251 ft 366 kts 43°
2026-05-01 09:28 60.29442 10.91453 13019 ft 371 kts 42°
2026-05-01 09:28 60.31270 10.95177 13801 ft 375 kts 41°
2026-05-01 09:28 60.33119 10.98939 14490 ft 380 kts 41°
2026-05-01 09:28 60.34992 11.02750 15122 ft 385 kts 41°
2026-05-01 09:29 60.38805 11.10534 16403 ft 394 kts 41°
2026-05-01 09:29 60.40742 11.14511 17036 ft 399 kts 41°
2026-05-01 09:30 60.44950 11.21882 18285 ft 400 kts 26°
2026-05-01 09:30 60.47420 11.24460 18837 ft 398 kts 15°
2026-05-01 09:30 60.52655 11.28172 19979 ft 402 kts 12°
2026-05-01 09:31 60.55272 11.30019 20551 ft 405 kts 13°
2026-05-01 09:31 60.57939 11.31917 21147 ft 408 kts 12°
2026-05-01 09:31 60.65645 11.37425 22680 ft 417 kts 13°
2026-05-01 09:32 60.71164 11.41396 23705 ft 424 kts 13°
2026-05-01 09:32 60.82621 11.45094 25423 ft 419 kts 356°
2026-05-01 09:32 60.88480 11.45794 26295 ft 424 kts 356°
2026-05-01 09:33 60.94393 11.46532 27099 ft 428 kts 356°
2026-05-01 09:33 61.00374 11.47296 27877 ft 433 kts 356°
2026-05-01 09:33 61.12488 11.48484 29366 ft 438 kts 353°
2026-05-01 09:34 61.18606 11.48371 30083 ft 441 kts 352°
2026-05-01 09:34 61.24783 11.48225 30686 ft 445 kts 352°
2026-05-01 09:34 61.37286 11.48266 31861 ft 452 kts 353°
2026-05-01 09:35 61.43564 11.48325 32692 ft 450 kts 353°
2026-05-01 09:35 61.56024 11.48388 34217 ft 446 kts 352°
2026-05-01 09:35 61.62222 11.48403 34876 ft 445 kts 353°
2026-05-01 09:36 61.68407 11.48425 35494 ft 444 kts 353°
2026-05-01 09:36 61.74571 11.48451 36094 ft 443 kts 353°
2026-05-01 09:36 61.80725 11.48482 36647 ft 442 kts 353°
2026-05-01 09:36 61.86864 11.48501 37142 ft 442 kts 353°
2026-05-01 09:37 61.92915 11.48508 37154 ft 439 kts 353°
2026-05-01 09:37 62.04189 11.49474 37158 ft 444 kts 359°
2026-05-01 09:38 62.13417 11.51588 37150 ft 445 kts 359°
2026-05-01 09:39 62.22644 11.53697 37151 ft 445 kts 359°
2026-05-01 09:39 62.28805 11.55120 37142 ft 445 kts 359°
2026-05-01 09:40 62.38032 11.57247 37163 ft 445 kts 359°
2026-05-01 09:41 62.44182 11.58673 37155 ft 444 kts 359°
2026-05-01 09:41 62.52364 11.60593 37148 ft 444 kts 359°
2026-05-01 09:42 62.58502 11.62026 37147 ft 443 kts 359°
2026-05-01 09:43 62.70775 11.64927 37163 ft 444 kts 358°
2026-05-01 09:43 62.76915 11.66389 37150 ft 444 kts 358°
2026-05-01 09:44 62.86118 11.68593 37134 ft 443 kts 358°
2026-05-01 09:45 62.92208 11.70049 37129 ft 443 kts 359°
2026-05-01 09:45 63.01413 11.72275 37140 ft 444 kts 358°
2026-05-01 09:46 63.07556 11.73771 37127 ft 444 kts 359°
2026-05-01 09:46 63.13707 11.75286 37123 ft 445 kts 359°
2026-05-01 09:47 63.19854 11.76795 37126 ft 445 kts 358°
2026-05-01 09:47 63.26004 11.78298 37157 ft 445 kts 358°
2026-05-01 09:48 63.32164 11.79803 37141 ft 446 kts 359°
2026-05-01 09:48 63.38272 11.83144 37131 ft 459 kts 13°
2026-05-01 09:49 63.44288 11.88015 37138 ft 460 kts 13°
2026-05-01 09:49 63.50307 11.92911 37128 ft 460 kts 13°
2026-05-01 09:50 63.56329 11.97821 37169 ft 461 kts 13°
2026-05-01 09:50 63.62363 12.02759 37140 ft 462 kts 13°
2026-05-01 09:51 63.68417 12.07707 37130 ft 463 kts 13°
2026-05-01 09:51 63.74474 12.12695 37132 ft 464 kts 13°
2026-05-01 09:52 63.80536 12.17732 37134 ft 465 kts 13°
2026-05-01 09:52 63.86604 12.22796 37157 ft 465 kts 13°
2026-05-01 09:53 63.92647 12.27845 37143 ft 466 kts 13°
2026-05-01 09:53 63.98734 12.32958 37111 ft 466 kts 13°
2026-05-01 09:54 64.04853 12.37817 37110 ft 465 kts 11°
2026-05-01 09:54 64.10989 12.42480 37112 ft 465 kts 11°
2026-05-01 09:55 64.17125 12.47218 37113 ft 465 kts 11°
2026-05-01 09:55 64.23257 12.52059 37118 ft 466 kts 12°
2026-05-01 09:56 64.29381 12.56942 37125 ft 466 kts 12°
2026-05-01 09:56 64.35511 12.61840 37132 ft 466 kts 12°
2026-05-01 09:57 64.41639 12.66737 37135 ft 466 kts 12°
2026-05-01 09:57 64.51334 12.74556 37139 ft 467 kts 12°
2026-05-01 09:58 64.63603 12.84514 37121 ft 467 kts 12°
2026-05-01 09:58 64.75809 12.94522 37149 ft 468 kts 12°
2026-05-01 09:59 64.88047 13.05226 37119 ft 469 kts 13°
2026-05-01 09:59 65.00267 13.16008 37104 ft 468 kts 13°
2026-05-01 10:00 65.12507 13.26854 37116 ft 470 kts 13°
2026-05-01 10:00 65.24741 13.37838 37082 ft 470 kts 14°
2026-05-01 10:01 65.36965 13.48901 37083 ft 469 kts 14°
2026-05-01 10:01 65.49118 13.60048 37058 ft 467 kts 14°
2026-05-01 10:02 65.61290 13.71266 37057 ft 469 kts 14°
2026-05-01 10:02 65.73393 13.82563 37069 ft 470 kts 14°
2026-05-01 10:03 65.85583 13.94083 37049 ft 470 kts 14°
2026-05-01 10:03 65.97786 14.05702 37081 ft 471 kts 14°
2026-05-01 10:04 66.09993 14.17445 37039 ft 471 kts 14°
2026-05-01 10:04 66.22209 14.29350 37022 ft 472 kts 14°
2026-05-01 10:05 66.34422 14.41308 37035 ft 472 kts 15°
2026-05-01 10:05 66.46654 14.53474 37034 ft 473 kts 15°
2026-05-01 10:06 66.58860 14.65718 37021 ft 472 kts 15°
2026-05-01 10:06 66.71055 14.78096 36986 ft 472 kts 15°
2026-05-01 10:07 66.83229 14.90589 36968 ft 472 kts 15°
2026-05-01 10:07 66.95425 15.03236 36981 ft 473 kts 15°
2026-05-01 10:08 67.13693 15.22411 36946 ft 473 kts 16°
2026-05-01 10:08 67.19709 15.28777 36725 ft 475 kts 15°
2026-05-01 10:09 67.25868 15.35341 35123 ft 486 kts 15°
2026-05-01 10:09 67.32201 15.42150 33753 ft 483 kts 15°
2026-05-01 10:09 67.38278 15.48751 32513 ft 475 kts 14°
2026-05-01 10:09 67.44334 15.55346 31324 ft 468 kts 14°
2026-05-01 10:10 67.50321 15.61892 30102 ft 464 kts 13°
2026-05-01 10:10 67.56226 15.68395 28903 ft 456 kts 13°
2026-05-01 10:10 67.67667 15.81049 26749 ft 437 kts 13°
2026-05-01 10:11 67.73203 15.87228 25719 ft 427 kts 13°
2026-05-01 10:11 67.76193 15.90585 25249 ft 420 kts 13°
2026-05-01 10:11 67.78875 15.93592 24673 ft 418 kts 13°
2026-05-01 10:11 67.81542 15.96575 24172 ft 415 kts 13°
2026-05-01 10:12 67.84190 15.99548 23634 ft 413 kts 13°
2026-05-01 10:12 67.86824 16.02525 23054 ft 411 kts 13°
2026-05-01 10:12 67.92028 16.08445 22000 ft 402 kts 13°
2026-05-01 10:13 67.94629 16.10757 21511 ft 386 kts
2026-05-01 10:13 67.97227 16.12102 21067 ft 378 kts
2026-05-01 10:13 67.99801 16.13381 20608 ft 374 kts
2026-05-01 10:14 68.04874 16.15886 19699 ft 368 kts
2026-05-01 10:14 68.07381 16.17134 19287 ft 366 kts
2026-05-01 10:14 68.09863 16.18382 18557 ft 361 kts
2026-05-01 10:14 68.12318 16.19621 17759 ft 357 kts
2026-05-01 10:15 68.14742 16.20846 16934 ft 352 kts
2026-05-01 10:15 68.17137 16.22057 16139 ft 348 kts
2026-05-01 10:15 68.19509 16.23258 15371 ft 345 kts
2026-05-01 10:15 68.21853 16.24446 14618 ft 341 kts
2026-05-01 10:16 68.24175 16.25624 13899 ft 338 kts
2026-05-01 10:16 68.26474 16.26794 13128 ft 335 kts
2026-05-01 10:16 68.30967 16.29099 11972 ft 316 kts
2026-05-01 10:17 68.33095 16.30209 11465 ft 308 kts
2026-05-01 10:17 68.37272 16.32355 10384 ft 303 kts
2026-05-01 10:17 68.39350 16.33408 10049 ft 303 kts
2026-05-01 10:18 68.43450 16.33745 9385 ft 292 kts 350°
2026-05-01 10:18 68.45480 16.33683 8949 ft 291 kts 351°
2026-05-01 10:18 68.47497 16.33633 8591 ft 289 kts 351°
2026-05-01 10:19 68.49497 16.33585 8243 ft 287 kts 351°
2026-05-01 10:19 68.51488 16.33535 7815 ft 285 kts 351°
2026-05-01 10:19 68.53467 16.33481 7439 ft 284 kts 351°
2026-05-01 10:20 68.57389 16.33365 6666 ft 280 kts 352°
2026-05-01 10:20 68.59335 16.33307 6345 ft 279 kts 352°
2026-05-01 10:20 68.61263 16.33255 6030 ft 274 kts 352°
2026-05-01 10:20 68.63127 16.33216 5996 ft 261 kts 352°
2026-05-01 10:21 68.64919 16.33178 6003 ft 256 kts 352°
2026-05-01 10:21 68.68451 16.33067 6000 ft 251 kts 352°
2026-05-01 10:21 68.70168 16.33101 5997 ft 248 kts 358°
2026-05-01 10:22 68.73254 16.37693 5989 ft 268 kts 49°
2026-05-01 10:22 68.74261 16.47327 5414 ft 265 kts 90°
2026-05-01 10:23 68.74330 16.52386 5050 ft 263 kts 89°
2026-05-01 10:23 68.73536 16.61661 4498 ft 245 kts 136°
2026-05-01 10:23 68.72229 16.64424 4505 ft 234 kts 163°
2026-05-01 10:24 68.69148 16.65503 4504 ft 222 kts 185°
2026-05-01 10:24 68.66140 16.65850 4089 ft 213 kts 185°
2026-05-01 10:25 68.63229 16.66190 3370 ft 201 kts 185°
2026-05-01 10:25 68.60536 16.66503 2697 ft 187 kts 185°
2026-05-01 10:26 68.59274 16.66653 2397 ft 175 kts 186°
2026-05-01 10:26 68.58106 16.66791 2096 ft 161 kts 186°
2026-05-01 10:26 68.56017 16.67030 1546 ft 142 kts 186°
2026-05-01 10:27 68.54112 16.67245 1067 ft 136 kts 185°
2026-05-01 10:27 68.52222 16.67461 602 ft 136 kts 183°
2026-05-01 10:28 68.51276 16.67566 372 ft 135 kts 184°
2026-05-01 10:28 68.49421 16.67773 428 ft 137 kts 182°
2026-05-01 10:28 68.48424 16.67845 1359 ft 148 kts 184°
2026-05-01 10:29 68.46078 16.68068 2465 ft 190 kts 185°
2026-05-01 10:29 68.44795 16.67320 3155 ft 188 kts 216°
2026-05-01 10:30 68.43798 16.61291 4985 ft 189 kts 275°
2026-05-01 10:30 68.43826 16.55388 5904 ft 188 kts 256°
2026-05-01 10:31 68.43207 16.48538 6005 ft 186 kts 256°
2026-05-01 10:31 68.43367 16.41727 5981 ft 195 kts 298°
2026-05-01 10:32 68.46105 16.38768 5981 ft 239 kts 347°
2026-05-01 10:32 68.47771 16.38419 5979 ft 241 kts 347°
2026-05-01 10:32 68.51129 16.37781 5974 ft 241 kts 347°
2026-05-01 10:33 68.54477 16.37121 5982 ft 240 kts 347°
2026-05-01 10:33 68.57827 16.36414 5982 ft 243 kts 347°
2026-05-01 10:34 68.59512 16.36045 5982 ft 243 kts 348°
2026-05-01 10:34 68.61197 16.35676 5985 ft 243 kts 347°
2026-05-01 10:34 68.62884 16.35309 5988 ft 243 kts 347°
2026-05-01 10:35 68.66255 16.34581 5992 ft 243 kts 347°
2026-05-01 10:35 68.67914 16.34219 5991 ft 243 kts 347°
2026-05-01 10:35 68.69596 16.33852 5989 ft 242 kts 347°
2026-05-01 10:35 68.71277 16.33482 5992 ft 242 kts 347°
2026-05-01 10:36 68.74437 16.36613 5936 ft 267 kts 51°
2026-05-01 10:36 68.75093 16.41341 5614 ft 266 kts 86°
2026-05-01 10:36 68.75054 16.46384 5338 ft 263 kts 98°
2026-05-01 10:37 68.74902 16.51400 4982 ft 261 kts 97°
2026-05-01 10:37 68.74018 16.60665 4483 ft 238 kts 133°
2026-05-01 10:37 68.72872 16.63603 4486 ft 218 kts 156°
2026-05-01 10:38 68.71513 16.65099 4486 ft 206 kts 177°
2026-05-01 10:38 68.70108 16.65437 4474 ft 201 kts 186°
2026-05-01 10:38 68.68713 16.65567 4488 ft 200 kts 186°
2026-05-01 10:38 68.67325 16.65714 4324 ft 199 kts 186°
2026-05-01 10:39 68.65943 16.65871 4021 ft 199 kts 185°
2026-05-01 10:39 68.64555 16.66029 3679 ft 201 kts 185°
2026-05-01 10:39 68.63144 16.66189 3330 ft 204 kts 183°
2026-05-01 10:39 68.61736 16.66361 2973 ft 197 kts 185°
2026-05-01 10:40 68.60415 16.66522 2631 ft 183 kts 185°
2026-05-01 10:40 68.59197 16.66666 2347 ft 169 kts 186°
2026-05-01 10:40 68.58060 16.66797 2058 ft 157 kts 185°
2026-05-01 10:40 68.57009 16.66917 1777 ft 147 kts 185°
2026-05-01 10:41 68.56006 16.67029 1517 ft 142 kts 183°
2026-05-01 10:41 68.55040 16.67137 1277 ft 137 kts 184°
2026-05-01 10:41 68.53136 16.67353 808 ft 137 kts 182°
2026-05-01 10:42 68.52196 16.67466 579 ft 136 kts 182°
2026-05-01 10:42 68.51258 16.67584 358 ft 133 kts 186°
2026-05-01 10:42 68.50345 16.67690 146 ft 130 kts 186°
2026-05-01 10:42 68.49483 16.67744 94 ft 104 kts 179°
2026-05-01 10:43 68.48992 16.67832 96 ft 34 kts 181°
2026-05-01 10:43 68.48903 16.67877 94 ft 8 kts 120°
2026-05-01 10:43 68.48887 16.68035 90 ft 11 kts 91°
2026-05-01 10:43 68.48890 16.68266 90 ft 12 kts 89°
2026-05-01 10:44 68.48892 16.68434 92 ft 7 kts 88°
2026-05-01 10:44 68.48893 16.68531 94 ft 3 kts 87°
2026-05-01 10:44 68.48894 16.68579 94 ft 4 kts 88°
2026-05-01 10:44 68.48894 16.68666 93 ft 6 kts 90°
2026-05-01 10:45 68.48897 16.68781 92 ft 7 kts 72°
2026-05-01 10:45 68.48942 16.68818 94 ft 4 kts 357°
2026-05-01 10:45 68.48962 16.68816 93 ft 2 kts 358°
2026-05-01 10:45 68.48979 16.68814 91 ft 2 kts 358°
2026-05-01 10:46 68.48985 16.68814 91 ft 0 kts 358°